Regional Weather Roundup
Issued by NWS

Home | Current Version | Previous Version | Graphics & Text | Print | Product List | Glossary On
Versions: 1 2 3 4 5 6 7 8 9 10 11 12 13 14 15 16 17 18 19 20 21 22 23 24 25 26 27 28 29 30 31 32 33 34 35 36 37 38 39 40 41 42 43 44 45 46 47 48 49 50
000
ASUS43 KDMX 300907
RWRIA

WEATHER ROUNDUP FOR IOWA
NATIONAL WEATHER SERVICE DES MOINES IA
400 AM CDT THU JUL 30 2015

NOTE: "FAIR" INDICATES FEW OR NO CLOUDS BELOW 12,000 FEET WITH NO
SIGNIFICANT WEATHER AND/OR OBSTRUCTIONS TO VISIBILITY.

* - THESE STATIONS ARE NOT NWS STATIONS...THUS NOT UNDER NWS
QUALITY CONTROL.  THEY ALSO DO NOT REPORT WEATHER SUCH
AS PRECIPITATION OR FOG.

IAZ001>003-012>014-020>022-031>034-043>046-301000-
   NORTHWEST IOWA

CITY           SKY/WX    TMP DP  RH WIND       PRES   REMARKS
CARROLL *      CLEAR     63  59  88 W7        30.15R
CHEROKEE *     PTCLDY    59  59 100 CALM      30.14S
DENISON *      CLEAR     61  59  94 CALM      30.15R
LE MARS *      PTCLDY    59  59 100 CALM      30.14S
ORANGE CITY *  CLEAR     61  57  88 CALM      30.14S
SHELDON *      CLEAR     54  54 100 CALM      30.13S
SIOUX CITY     CLEAR     65  58  78 W5        30.14S
SPENCER          N/A     58  54  86 CALM      30.13S
STORM LAKE *   CLEAR     63  59  88 W8        30.16R
$$

IAZ055>058-069>071-079>083-090>094-301000-
   SOUTHWEST IOWA

CITY           SKY/WX    TMP DP  RH WIND       PRES   REMARKS
ATLANTIC *     CLEAR     59  59 100 S3        30.18R
AUDUBON *      CLEAR     61  57  88 CALM      30.18R
CLARINDA *     CLEAR     61  61 100 CALM      30.20R
COUNCIL BLFS * CLEAR     66  59  77 SW6       30.19R
CRESTON *      CLEAR     63  59  88 W6        30.18S
HARLAN  *      CLEAR     57  57 100 CALM      30.21R
LAMONI         CLEAR     67  58  72 W5        30.17R
RED OAK *      CLEAR     59  59 100 CALM      30.19R
SHENANDOAH *     N/A     61  61 100 CALM      30.19R
$$

IAZ047>049-059>061-072>074-084-301000-
   CENTRAL IOWA

CITY           SKY/WX    TMP DP  RH WIND       PRES   REMARKS
AMES           CLEAR     61  58  90 W6        30.13R
ANKENY *       CLEAR     66  59  77 W8        30.13S
CHARITON *     CLEAR     64  59  82 W7        30.16R
DES MOINES     CLEAR     65  58  78 SW6       30.13S
GRINNELL*      CLEAR     61  59  94 W6        30.14R
KNOXVILLE *    CLEAR     63  57  82 W8        30.13R
MARSHALLTOWN     N/A     62  59  90 W3        30.11S
PELLA *        CLEAR     66  63  88 W7        30.14S
PERRY *          N/A     61  59  94 W8        30.14S
$$

IAZ004>006-015-016-023>025-035-036-301000-
   NORTH CENTRAL IOWA

CITY           SKY/WX    TMP DP  RH WIND       PRES   REMARKS
ALGONA *       CLEAR     61  59  94 SW7       30.12R
CLARION *      CLEAR     57  57 100 SW6       30.12S
ESTHERVILLE    CLEAR     58  56  93 W7        30.11S
FORT DODGE *   CLEAR     63  55  77 SW3       30.13S
MASON CITY     CLEAR     63  59  87 W9        30.11S
FOREST CITY *  CLEAR     55  55 100 SW5       30.11R
IOWA FALLS *     N/A     61  57  88 W6        30.13R
$$

IAZ007>011-017>019-026>030-037>042-050>054-066-301000-
   NORTHEAST IOWA

CITY           SKY/WX    TMP DP  RH WIND       PRES   REMARKS
CEDAR RAPIDS   CLEAR     60  60 100 W6        30.10R
CHARLES CITY * CLEAR     61  61 100 W6        30.09S
CLINTON *      CLEAR     57  55  94 W7        30.10S
DECORAH *      CLEAR     63  59  88 VRB3      30.07R
DUBUQUE        CLEAR     63  59  87 W12       30.08R
MONTICELLO *   CLEAR     61  59  94 CALM      30.08S
OELWEIN *        N/A     61  59  94 W7        30.10S
WATERLOO       CLEAR     65  59  81 W9        30.08S
$$

IAZ064-065-067-068-078-301000-
   EAST CENTRAL IOWA

CITY           SKY/WX    TMP DP  RH WIND       PRES   REMARKS
DAVENPORT      CLEAR     63  59  87 W7        30.09S
IOWA CITY      CLEAR     64  59  83 W7        30.11S
MT. PLEASANT * CLEAR     64  59  82 W6        30.12F
MUSCATINE *    CLEAR     66  59  77 W6        30.10S
QUAD CITIES    CLEAR     63  58  83 SW6       30.08S
$$

IAZ062-063-075>077-085>089-095>099-301000-
   SOUTHEAST IOWA

CITY           SKY/WX    TMP DP  RH WIND       PRES   REMARKS
BURLINGTON     CLEAR     65  61  87 W5        30.11F
FAIRFIELD *    CLEAR     63  59  88 W6        30.13S
FORT MADISON * CLEAR     64  61  88 W5        30.13S
KEOKUK *       CLEAR     66  61  82 W5        30.12S
OSKALOOSA *      N/A     61  57  88 W5        30.13S
CENTERVILLE *  CLEAR     61  59  94 SW5       30.17S
OTTUMWA        CLEAR     62  59  90 W7        30.11S
WASHINGTON *   CLEAR     63  61  94 W7        30.13S
$$

ABBREVIATIONS USED IN REMARKS
   TC - TEMPERATURES IN CELSIUS
  WCI - WIND CHILL INDEX
   HX - HEAT INDEX
  VSB - VISIBILITY
$$




USA.gov is the U.S. government's official web portal to all federal, state and local government web resources and services.